DW8935 Weather Reports


time (UTC)temp
F
wind
direction
speed
knots
gust
knots
rain 1hr
in
rain 24hr
in
rain mn
in
humidity
%
barometer
mb
20260902060039 61 248 4.3 10.4 0.00 0.00 0.00 58 1011.7
20260902054544 61 271 5.2 12.2 0.00 0.00 0.00 59 1011.8
20260902053039 61 271 3.5 12.2 0.00 0.00 0.00 59 1011.9
20260902051544 61 228 5.2 11.3 0.00 0.00 0.00 59 1012.0
20260902050056 61 263 6.1 12.2 0.00 0.00 0.00 59 1012.1
20260902044538 61 223 5.2 11.3 0.00 0.00 0.00 58 1012.2
20260902043045 61 228 5.2 11.3 0.00 0.00 0.00 58 1012.1
20260902041539 61 270 5.2 9.6 0.00 0.00 0.00 59 1012.2
20260902040039 61 238 3.5 11.3 0.00 0.00 0.00 59 1012.4
20260902034538 61 290 5.2 10.4 0.00 0.00 0.00 59 1012.5
20260902033038 61 212 4.3 9.6 0.00 0.00 0.00 59 1012.9
20260902031538 60 250 4.3 10.4 0.00 0.00 0.00 59 1013.0
20260902030037 61 249 4.3 11.3 0.00 0.00 0.00 59 1013.4
20260902024546 60 231 5.2 11.3 0.00 0.00 0.00 59 1013.7
20260902023036 60 259 5.2 11.3 0.00 0.00 0.00 60 1014.0
20260902021535 59 262 4.3 9.6 0.00 0.00 0.00 62 1014.2
20260902020036 58 244 4.3 11.3 0.00 0.00 0.00 63 1014.4
20260902014534 59 232 4.3 10.4 0.00 0.00 0.00 62 1014.5
20260902013039 58 270 3.5 9.6 0.00 0.00 0.00 65 1014.7
20260902011536 57 277 4.3 7.8 0.00 0.00 0.00 66 1014.9
20260902010032 57 262 1.7 10.4 0.00 0.00 0.00 67 1015.1
20260902004532 57 286 0.9 9.6 0.00 0.00 0.00 68 1015.2
20260902003032 57 255 3.5 8.7 0.00 0.00 0.00 68 1015.3
20260902001531 57 284 3.5 8.7 0.00 0.00 0.00 69 1015.4
20260902000030 56 265 1.7 8.7 0.00 0.00 0.00 71 1015.5
20260901234529 56 257 2.6 8.7 0.00 0.00 0.00 72 1015.6
20260901233028 56 227 2.6 9.6 0.00 0.00 0.00 73 1015.4
20260901231529 55 244 3.5 10.4 0.00 0.00 0.00 73 1015.5
20260901230029 55 212 1.7 9.6 0.00 0.00 0.00 74 1015.5
20260901224534 55 287 4.3 7.8 0.00 0.00 0.00 76 1015.5
20260901223024 55 271 5.2 10.4 0.00 0.00 0.00 79 1015.3
20260901221522 55 250 2.6 7.8 0.00 0.00 0.00 81 1015.2
20260901220020 54 273 0.9 6.1 0.00 0.00 0.00 81 1014.9
20260901214518 54 231 2.6 7.0 0.00 0.00 0.00 81 1014.8
20260901213028 54 263 1.7 7.0 0.00 0.00 0.00 82 1014.7
20260901211514 55 261 2.6 8.7 0.00 0.00 0.00 83 1014.7
20260901210013 55 263 2.6 7.0 0.00 0.00 0.00 83 1014.4
20260901204511 55 247 0.9 6.1 0.00 0.00 0.00 84 1014.2
20260901203007 55 239 1.7 8.7 0.00 0.00 0.00 86 1013.7
20260901201508 55 241 3.5 6.1 0.00 0.00 0.00 87 1013.6
20260901200002 55 284 0.9 7.0 0.00 0.00 0.00 88 1013.4
20260901194601 56 275 0.0 4.3 0.00 0.00 0.00 87 1013.3
20260901193057 56 263 0.9 6.1 0.00 0.00 0.00 87 1013.2
20260901191611 56 250 0.9 7.8 0.00 0.00 0.00 86 1013.1
20260901190053 57 237 3.5 9.6 0.00 0.00 0.00 85 1013.0
20260901184609 57 242 2.6 8.7 0.00 0.00 0.00 84 1012.7
20260901183051 58 223 2.6 8.7 0.00 0.00 0.00 84 1012.4
20260901181553 59 230 2.6 10.4 0.00 0.00 0.00 81 1012.3
20260901180040 60 267 5.2 12.2 0.00 0.00 0.00 78 1012.0
20260901174552 60 298 0.9 5.2 0.00 0.00 0.00 77 1011.7
20260901173039 60 268 0.9 5.2 0.00 0.00 0.00 77 1011.5
20260901171541 61 303 0.9 7.8 0.00 0.00 0.00 76 1011.4
20260901170038 61 296 3.5 9.6 0.00 0.00 0.00 76 1011.4
20260901164541 61 244 3.5 8.7 0.00 0.00 0.00 75 1011.6
20260901163035 61 284 1.7 7.8 0.00 0.00 0.00 76 1011.6
20260901161542 60 288 2.6 9.6 0.00 0.00 0.00 77 1011.7
20260901160058 60 315 2.6 7.0 0.00 0.00 0.00 78 1011.8
20260901154535 60 317 3.5 7.8 0.00 0.00 0.00 79 1011.9
20260901153033 60 294 1.7 6.1 0.00 0.00 0.00 79 1011.9
20260901151532 60 327 2.6 7.8 0.00 0.00 0.00 78 1011.9
20260901150030 60 315 1.7 7.0 0.00 0.00 0.00 77 1011.8
20260901144527 61 271 2.6 8.7 0.00 0.00 0.00 76 1011.8
20260901143025 61 269 2.6 10.4 0.00 0.00 0.00 73 1011.9
20260901141524 62 291 5.2 12.2 0.00 0.00 0.00 71 1012.0
20260901140026 62 258 4.3 9.6 0.00 0.00 0.00 70 1012.0
20260901134526 62 343 4.3 10.4 0.00 0.00 0.00 70 1011.8
20260901133020 62 299 6.1 11.3 0.00 0.00 0.00 70 1011.7
20260901131520 62 340 4.3 14.8 0.00 0.00 0.00 70 1012.0
20260901130027 62 321 7.0 13.9 0.00 0.00 0.00 71 1012.0
20260901124530 62 320 4.3 11.3 0.00 0.00 0.00 72 1011.9
20260901123037 62 275 4.3 17.4 0.00 0.00 0.00 71 1011.9
20260901121523 63 294 6.1 13.0 0.00 0.00 0.00 68 1012.0
20260901120030 64 321 4.3 11.3 0.00 0.00 0.00 65 1011.7
20260901114519 63 263 5.2 13.0 0.00 0.00 0.00 67 1011.7
20260901113019 63 329 4.3 10.4 0.00 0.00 0.00 68 1011.9
20260901111527 63 292 5.2 13.9 0.00 0.00 0.00 69 1011.6
20260901110020 63 299 6.1 13.0 0.00 0.00 0.00 68 1011.8
20260901104518 64 340 5.2 15.6 0.00 0.00 0.00 65 1011.7
20260901103017 65 327 6.1 14.8 0.00 0.00 0.00 62 1011.9
20260901101517 66 300 4.3 13.0 0.00 0.00 0.00 60 1011.4
20260901100017 67 296 5.2 14.8 0.00 0.00 0.00 58 1011.6
20260901094517 67 319 7.8 15.6 0.00 0.00 0.00 57 1011.4
20260901093017 68 323 9.6 17.4 0.00 0.00 0.00 52 1011.2
20260901091515 68 18 6.1 15.6 0.00 0.00 0.00 52 1011.5
20260901090015 67 327 6.1 17.4 0.00 0.00 0.00 52 1011.7
20260901084512 67 331 7.0 15.6 0.00 0.00 0.00 52 1012.2
20260901083011 67 25 5.2 17.4 0.00 0.00 0.00 52 1012.2
20260901081510 68 321 7.0 14.8 0.00 0.00 0.00 52 1012.4
20260901080014 68 331 6.1 13.0 0.00 0.00 0.00 51 1012.6
20260901074511 68 311 6.1 12.2 0.00 0.00 0.00 50 1012.8
20260901073013 69 332 6.1 13.9 0.00 0.00 0.00 50 1012.8
20260901071511 69 284 7.0 13.9 0.00 0.00 0.00 49 1012.8
20260901070010 69 310 6.1 14.8 0.00 0.00 0.00 48 1012.8
20260901064510 69 268 7.8 19.1 0.00 0.00 0.00 47 1012.9
20260901063011 70 275 6.1 19.1 0.00 0.00 0.00 47 1012.7
20260901061515 70 355 4.3 13.9 0.00 0.00 0.00 49 1012.6